Location: Kumla
(59.1265°N, 15.1401°E)
Time: 17:58:30
(UTC+01:00)

Transit 2A - Pass Details

Date: 07 December 2023
Orbit: 600 x 953 km, 66.7° (Epoch: 27 February)

Event Time Altitude Azimuth Distance (km) Brightness Sun altitude
Rises 23:26:34 0° 310° (NW) 2,878 - -53.3°
Reaches altitude 10° 23:28:59 10° 301° (WNW) 1,957 - -53.3°
Maximum altitude 23:32:53 33° 237° (WSW) 1,028 - -53.4°
Drops below altitude 10° 23:36:48 10° 174° (S) 1,966 - -53.4°
Sets 23:39:14 0° 164° (SSE) 2,895 - -53.5°
